[[{"header":{"parameterUnit":"m.s-1","parameterCategory":1,"la1":30.2991,"la2":30.254,"lo1":-89.0895,"lo2":-89.0444,"dy":0.0017,"dx":0.0017,"nx":28,"ny":28,"refTime":"2024-06-16T03:00:00:Z","depth":0,"parameterNumber":2,"parameterNumberName":"U-component_of_WINDS"},"data":[0,0,0,0,0,0,0,0,0,0,0,0,0,0,0,0,0,0,0,0,0,0,0,0,0,0,0,0,0,0,0,0,0,0,0,0,0,0,0,0,0,0,0,0,0,0,0,0,0,0,0,0,0,0,0,0,0,0,-1.3859,-1.3858,0,-1.3825,-1.3825,-1.3824,-1.3828,-1.3829,-1.3829,-1.383,-1.3793,-1.3792,-1.379,0,0,0,0,0,0,0,0,0,0,0,0,0,-1.3924,-1.3923,-1.3859,-1.3858,-1.3858,-1.3825,-1.3825,-1.3824,-1.3828,-1.3829,-1.383,-1.383,-1.3794,-1.3792,-1.379,0,0,0,0,0,0,0,0,0,0,0,0,0,-1.3893,-1.3922,-1.3859,-1.3856,-1.3855,-1.3825,-1.3825,-1.3824,-1.3828,-1.3829,-1.383,-1.3831,-1.3794,-1.3792,-1.379,-1.376,0,0,-1.3783,-1.3782,0,0,0,0,0,0,0,0,-1.3895,-1.3891,-1.3857,-1.3856,-1.3855,-1.3832,-1.3834,-1.3802,-1.3828,-1.3838,-1.383,-1.3831,-1.3805,-1.3802,-1.3794,-1.3758,-1.3756,-1.3783,-1.3781,-1.378,-1.378,0,0,0,0,0,0,0,-1.3897,-1.3892,-1.3845,-1.3856,-1.3855,-1.3856,-1.3852,-1.3828,-1.3817,-1.3838,-1.3838,-1.3834,-1.3805,-1.3796,-1.3793,-1.3756,-1.3783,-1.3781,-1.3779,-1.3779,-1.3693,-1.3692,0,0,0,0,0,0,-1.39,-1.3894,-1.3846,-1.3844,-1.3878,-1.3854,-1.385,-1.3839,-1.3818,-1.3815,-1.3833,-1.3834,-1.3799,-1.3796,-1.3792,-1.3755,-1.378,-1.3778,-1.3777,-1.3694,-1.3693,-1.3692,0,0,0,0,0,0,-1.3902,-1.3896,-1.3848,-1.3869,-1.3863,-1.3852,-1.3839,-1.3837,-1.3829,-1.3815,-1.3812,-1.3826,-1.38,-1.3795,-1.3768,-1.3754,-1.3777,-1.3775,-1.3695,-1.3693,-1.3692,-1.3681,0,0,0,0,0,0,-1.3904,-1.3896,-1.3885,-1.3869,-1.3862,-1.3825,-1.3838,-1.3836,-1.3825,-1.3826,-1.3808,-1.3805,-1.38,-1.3771,-1.3765,-1.3751,-1.3774,-1.3696,-1.3694,-1.3693,-1.3682,-1.3679,-1.3676,0,0,0,0,0,-1.3906,-1.3883,-1.3885,-1.3879,-1.3848,-1.3824,-1.382,-1.3816,-1.3824,-1.3812,-1.3803,-1.3806,-1.3756,-1.3768,-1.3762,-1.3746,-1.3697,-1.3695,-1.3693,-1.3684,-1.368,-1.3676,0,0,0,0,0,0,-1.3897,-1.3881,-1.3883,-1.3854,-1.3841,-1.3825,-1.381,-1.3812,-1.3795,-1.3796,-1.3791,-1.3786,-1.3759,-1.375,-1.3764,-1.3716,-1.3728,-1.3724,-1.3723,-1.3719,-1.3716,-1.3718,-1.3772,0,0,0,0,0,-1.3893,-1.3875,-1.3861,-1.3837,-1.3831,-1.3822,-1.3811,-1.3809,-1.3794,-1.3788,-1.3777,-1.3762,-1.3743,-1.3731,-1.3712,-1.3681,-1.3677,-1.3667,-1.3664,-1.3662,-1.3659,-1.3641,-1.3637,-1.3685,-1.3685,-1.3685,0,0,-1.3882,-1.387,-1.386,-1.3835,-1.3825,-1.3806,-1.3817,-1.3797,-1.3782,-1.3785,-1.3758,-1.375,-1.3733,-1.3703,-1.369,-1.3695,-1.3645,-1.3659,-1.3658,-1.3656,-1.3638,-1.3634,-1.363,-1.3683,-1.3684,-1.3684,0,0,-1.3852,-1.3842,-1.3821,-1.381,-1.3794,-1.3788,-1.3783,-1.3767,-1.3762,-1.3735,-1.3737,-1.3719,-1.3687,-1.3675,-1.3664,-1.363,-1.3631,-1.3624,-1.3608,-1.3591,-1.3587,-1.3584,-1.3571,-1.3566,-1.3621,-1.3621,-1.3621,0,-1.3841,-1.3813,-1.381,-1.379,-1.3779,-1.3781,-1.3759,-1.3748,-1.3726,-1.3718,-1.3725,-1.3684,-1.3673,-1.364,-1.3632,-1.3624,-1.3617,-1.3626,-1.3588,-1.3585,-1.3581,-1.3569,-1.3564,-1.362,-1.362,-1.362,-1.3621,0,-1.38,-1.378,-1.3765,-1.3745,-1.3732,-1.3711,-1.3704,-1.3691,-1.369,-1.3683,-1.3656,-1.3643,-1.3621,-1.3614,-1.3612,-1.3581,-1.3584,-1.359,-1.3601,-1.3576,-1.3564,-1.356,-1.3619,-1.3619,-1.362,-1.362,0,0,-1.3764,-1.3742,-1.3736,-1.3727,-1.3709,-1.3694,-1.3673,-1.3653,-1.3642,-1.3627,-1.3608,-1.3581,-1.3585,-1.3573,-1.357,-1.3555,-1.3528,-1.3562,-1.3562,-1.3556,-1.3492,-1.3488,-1.3482,-1.353,-1.3529,-1.3528,-1.3493,0,-1.3733,-1.3696,-1.3692,-1.3658,-1.364,-1.3642,-1.3623,-1.361,-1.3603,-1.3586,-1.3578,-1.3558,-1.3566,-1.3559,-1.3544,-1.3535,-1.3515,-1.3537,-1.3511,-1.351,-1.3515,-1.3476,-1.3472,-1.344,-1.3489,-1.3488,-1.3487,0,-1.3691,-1.3675,-1.364,-1.3624,-1.3617,-1.36,-1.3581,-1.3565,-1.355,-1.3546,-1.3532,-1.3531,-1.3508,-1.3521,-1.3489,-1.3504,-1.3493,-1.3487,-1.3486,-1.3482,-1.3497,-1.3471,-1.3429,-1.3424,-1.348,-1.3481,-1.3481,0,-1.3668,-1.3638,-1.3613,-1.3605,-1.3586,-1.3574,-1.3566,-1.3551,-1.3539,-1.3522,-1.3514,-1.3495,-1.3484,-1.3469,-1.3462,-1.3472,-1.343,-1.3443,-1.3425,-1.3425,-1.3416,-1.3416,-1.3371,-1.341,-1.341,-1.341,-1.341,0,-1.3633,-1.3611,-1.3602,-1.3587,-1.3562,-1.3558,-1.3533,-1.3525,-1.3512,-1.3494,-1.3495,-1.3478,-1.3471,-1.3452,-1.3447,-1.3421,-1.3416,-1.3411,-1.341,-1.3411,-1.3412,-1.3403,-1.3405,-1.3409,-1.3409,-1.3409,-1.341,0,-1.3603,-1.3596,-1.3569,-1.3553,-1.3549,-1.3531,-1.3518,-1.3502,-1.3496,-1.3473,-1.3468,-1.3457,-1.3435,-1.3427,-1.3401,-1.3398,-1.3367,-1.3368,-1.3372,-1.3372,-1.3355,-1.3356,-1.3302,-1.3294,-1.3339,-1.3338,-1.3338,0,-1.3581,-1.3565,-1.3547,-1.3536,-1.3527,-1.3508,-1.3496,-1.3491,-1.3478,-1.3459,-1.3445,-1.3424,-1.3407,-1.3373,-1.3362,-1.3342,-1.3342,-1.3324,-1.3339,-1.334,-1.3341,-1.3341,-1.3339,-1.3321,-1.3321,-1.332,-1.332,0,-1.3543,-1.354,-1.3523,-1.3504,-1.349,-1.3475,-1.346,-1.3451,-1.3443,-1.3429,-1.3407,-1.3394,-1.3367,-1.3346,-1.3325,-1.3315,-1.3316,-1.3316,-1.331,-1.3311,-1.3314,-1.3311,-1.3364,-1.3317,-1.3317,-1.3317,-1.3317,-1.3318,-1.3516,-1.3501,-1.3486,-1.3467,-1.3455,-1.3441,-1.3426,-1.3417,-1.34,-1.3378,-1.3376,-1.3352,-1.3336,-1.3309,-1.3298,-1.3279,-1.3284,-1.3276,-1.3274,-1.3272,-1.3271,-1.3318,-1.3275,-1.3275,-1.3275,-1.3276,-1.3276,0,-1.3477,-1.3467,-1.345,-1.3429,-1.3414,-1.3417,-1.34,-1.3387,-1.3367,-1.3352,-1.3335,-1.331,-1.3289,-1.3277,-1.3256,-1.3243,-1.3242,-1.3237,-1.3238,-1.3235,-1.3268,-1.3275,-1.3238,-1.3238,-1.3238,-1.3238,-1.3238,-1.3238,-1.3455,-1.343,-1.3425,-1.3393,-1.3384,-1.3361,-1.3352,-1.3339,-1.3327,-1.3299,-1.3282,-1.3274,-1.326,-1.3238,-1.3219,-1.3216,-1.3207,-1.3202,-1.3199,-1.3229,-1.3233,-1.3237,-1.3243,-1.32,-1.32,-1.3168,-1.3167,-1.3167]},{"header":{"parameterUnit":"m.s-1","parameterCategory":1,"la1":30.2991,"la2":30.254,"lo1":-89.0895,"lo2":-89.0444,"dy":0.0017,"dx":0.0017,"nx":28,"ny":28,"refTime":"2024-06-16T03:00:00:Z","depth":0,"parameterNumber":3,"parameterNumberName":"V-component_of_WINDS"},"data":[0,0,0,0,0,0,0,0,0,0,0,0,0,0,0,0,0,0,0,0,0,0,0,0,0,0,0,0,0,0,0,0,0,0,0,0,0,0,0,0,0,0,0,0,0,0,0,0,0,0,0,0,0,0,0,0,0,0,7.4028,7.4027,0,7.3971,7.3971,7.397,7.3868,7.3866,7.3864,7.3862,7.3806,7.3806,7.3806,0,0,0,0,0,0,0,0,0,0,0,0,0,7.4049,7.4049,7.4028,7.4027,7.4026,7.3971,7.3971,7.397,7.3868,7.3866,7.3863,7.3861,7.3806,7.3806,7.3806,0,0,0,0,0,0,0,0,0,0,0,0,0,7.4021,7.4049,7.4028,7.3969,7.3963,7.3972,7.3971,7.397,7.3869,7.3866,7.3863,7.386,7.3806,7.3806,7.3807,7.3868,0,0,7.3808,7.3808,0,0,0,0,0,0,0,0,7.4023,7.402,7.3978,7.3973,7.3966,7.3923,7.3957,7.3936,7.3869,7.3905,7.3862,7.3859,7.3847,7.3844,7.384,7.3866,7.3863,7.3808,7.3808,7.3809,7.3809,0,0,0,0,0,0,0,7.4025,7.4022,7.4005,7.3978,7.3971,7.3946,7.3939,7.3953,7.3893,7.3901,7.3894,7.3888,7.3844,7.384,7.3838,7.3862,7.3808,7.3808,7.3809,7.3809,7.3936,7.3938,0,0,0,0,0,0,7.4035,7.4024,7.4007,7.4004,7.3988,7.3948,7.394,7.394,7.3893,7.3883,7.3891,7.3884,7.3841,7.3838,7.3836,7.3904,7.3809,7.3809,7.3809,7.3933,7.3936,7.394,0,0,0,0,0,0,7.4036,7.4034,7.4009,7.4012,7.4007,7.3951,7.3952,7.3941,7.3937,7.3885,7.3874,7.3898,7.3838,7.3835,7.3861,7.3901,7.3809,7.381,7.3929,7.3934,7.3938,7.4042,0,0,0,0,0,0,7.4037,7.4035,7.4058,7.4013,7.4007,7.4035,7.3955,7.3942,7.3938,7.3928,7.3889,7.3879,7.3836,7.3861,7.3861,7.39,7.381,7.3925,7.3931,7.3936,7.4035,7.405,7.4063,0,0,0,0,0,7.4038,7.409,7.4059,7.4058,7.4034,7.4038,7.4034,7.3982,7.3942,7.3964,7.3931,7.3881,7.3897,7.3864,7.3864,7.3903,7.3922,7.3929,7.3936,7.4029,7.4047,7.4063,0,0,0,0,0,0,7.4141,7.4083,7.4049,7.4087,7.4068,7.402,7.4047,7.4004,7.3996,7.3987,7.3924,7.3916,7.395,7.3929,7.3894,7.3961,7.3902,7.3909,7.3972,7.3989,7.4003,7.4006,7.381,0,0,0,0,0,7.4168,7.4176,7.4125,7.4164,7.4156,7.4104,7.4103,7.4065,7.4043,7.4034,7.4003,7.3984,7.3984,7.3986,7.3984,7.4032,7.4022,7.4059,7.4073,7.4085,7.4092,7.4115,7.4131,7.3962,7.3962,7.3962,0,0,7.4225,7.4194,7.4202,7.4184,7.4164,7.4174,7.4097,7.4111,7.4117,7.4036,7.4058,7.4035,7.4009,7.4047,7.4062,7.4031,7.4136,7.4094,7.4103,7.4103,7.4124,7.414,7.4154,7.3967,7.3966,7.3965,0,0,7.4331,7.4309,7.4339,7.4321,7.4293,7.4258,7.4265,7.4224,7.4205,7.4226,7.4166,7.4173,7.4176,7.416,7.4152,7.4254,7.4208,7.4256,7.4327,7.4351,7.4364,7.4376,7.4411,7.4425,7.4263,7.4263,7.4263,0,7.4405,7.4416,7.436,7.4377,7.4371,7.4298,7.4328,7.4314,7.4287,7.4284,7.425,7.4252,7.423,7.4262,7.4287,7.4284,7.429,7.4259,7.4367,7.4378,7.4388,7.4421,7.4435,7.4269,7.4268,7.4267,7.4267,0,7.4508,7.4517,7.4544,7.4519,7.4516,7.454,7.4488,7.4492,7.4455,7.4423,7.4446,7.4417,7.4407,7.4412,7.4376,7.444,7.4421,7.4379,7.4317,7.4411,7.4441,7.4453,7.4277,7.4275,7.4273,7.4272,0,0,7.4676,7.462,7.4631,7.4619,7.4583,7.4589,7.461,7.46,7.4604,7.4589,7.4604,7.4608,7.4568,7.4559,7.4521,7.4542,7.4624,7.4496,7.4495,7.452,7.4692,7.4724,7.4739,7.4594,7.4596,7.4598,7.4694,0,7.4774,7.4805,7.4756,7.4799,7.4806,7.4738,7.4756,7.4737,7.4708,7.4711,7.468,7.4683,7.4631,7.4625,7.4643,7.4611,7.4658,7.4603,7.4607,7.4608,7.4614,7.4755,7.4788,7.488,7.4705,7.4707,7.4708,0,7.4893,7.4882,7.4926,7.4887,7.4888,7.4905,7.4892,7.4895,7.4872,7.485,7.4841,7.4795,7.4813,7.4756,7.4779,7.4743,7.4742,7.4727,7.4729,7.4727,7.4663,7.4755,7.4908,7.4922,7.4727,7.4725,7.4724,0,7.501,7.5007,7.5032,7.5024,7.498,7.4993,7.4976,7.4949,7.4946,7.4936,7.4933,7.4925,7.492,7.4915,7.4869,7.4832,7.4898,7.4837,7.488,7.4881,7.4896,7.4895,7.505,7.4898,7.4898,7.4897,7.4897,0,7.5124,7.5153,7.5084,7.51,7.5131,7.5074,7.5106,7.5082,7.5059,7.5069,7.501,7.5021,7.496,7.4964,7.4928,7.4953,7.4951,7.4934,7.4924,7.4938,7.494,7.4936,7.4928,7.4901,7.49,7.49,7.4899,0,7.526,7.5215,7.5238,7.5194,7.5184,7.5209,7.5171,7.5184,7.5153,7.5166,7.5166,7.5116,7.5118,7.5072,7.5064,7.504,7.508,7.5059,7.5088,7.5081,7.5126,7.5122,7.5282,7.53,7.5138,7.514,7.5141,0,7.5335,7.5355,7.5314,7.5316,7.5301,7.5306,7.5303,7.5249,7.5248,7.5223,7.5239,7.5236,7.523,7.5237,7.52,7.5194,7.5172,7.5228,7.5171,7.5185,7.5172,7.517,7.5172,7.524,7.5242,7.5244,7.5245,0,7.5473,7.5449,7.5447,7.5437,7.5435,7.5425,7.5411,7.5417,7.5358,7.536,7.5361,7.5357,7.5349,7.5347,7.5334,7.5316,7.5271,7.5264,7.5273,7.5288,7.5303,7.5295,7.512,7.526,7.5259,7.5258,7.5257,7.5256,7.5579,7.5594,7.5568,7.5567,7.5551,7.5539,7.5549,7.5519,7.5518,7.5508,7.5476,7.5483,7.5459,7.5437,7.5423,7.5427,7.5399,7.5413,7.5416,7.5421,7.5429,7.5304,7.5425,7.5424,7.5424,7.5423,7.5423,0,7.5713,7.5693,7.5693,7.5675,7.5675,7.5633,7.5615,7.5618,7.5624,7.5605,7.5601,7.5602,7.56,7.5564,7.5557,7.5567,7.5547,7.5567,7.5565,7.5562,7.5455,7.5446,7.5584,7.5584,7.5584,7.5584,7.5584,7.5584,7.5783,7.5806,7.578,7.5794,7.5774,7.5779,7.5773,7.5762,7.5747,7.575,7.5748,7.5724,7.5699,7.569,7.5686,7.5675,7.5675,7.5703,7.5685,7.5585,7.557,7.5555,7.5547,7.5703,7.5704,7.5792,7.5793,7.5793]}]]